{"data":{"norad_id":64878,"intl_designator":"2025-155C","name":"INNOSAT 16 (RS92S7)","alt_names":[],"object_type":"PAYLOAD","status":"ACTIVE","operator":null,"country":"MALA","launch_date":"2025-07-25","launch_site_code":"VOSTO","launch_vehicle":null,"mission":null,"orbit_class":"UNKNOWN","rcs_meters":null,"size_class":null,"mass_kg":null,"dimensions":null,"purposes":["comms"],"wikipedia_slug":null,"has_3d_model":false,"image_url":null,"decayed_at":null,"tle_current":{"epoch":"2026-05-25T04:08:28.459968Z","epoch_age_seconds":56276,"freshness":"FRESH","line1":"1 64878U 25155C   26145.17255162  .00005369  00000+0  21681-3 0  9991","line2":"2 64878  97.4548 112.3806 0008492 266.6603  93.3664 15.25169182 77167","mean_motion":15.25169182,"eccentricity":0.0008492,"inclination_deg":97.4548,"raan_deg":112.3806,"arg_perigee_deg":266.6603,"mean_anomaly_deg":93.3664,"bstar":0.00021681,"rev_number":7716,"period_min":94.415755117192,"perigee_km":484.44480216229,"apogee_km":496.11011728068,"semimajor_km":6868.4144597215,"source":"CELESTRAK","updated_at":"2026-05-25T13:38:23.325978Z"}}}